SCP
-0 0 0 -0 -0 -0 0 0 0 0 0 0 0 0 0 0 0 0 -0 0 -0 0 -0 -0 -0 -0 -0 -0 -0 -0 -0 0 0 0 0 0 -0 -0 -0 -0 -0 -0 -0 -0 0 0 0 0 0
0 0 0 0 0 0 0 0 0 -0 0 0 0 0 0 0 -0 0 0 0 -0 0 -0 -0 -0 -0 -0 0 0 0 -0 0 0 0 0 0 0 -0 -0 -0 -0 0 -0 -0 0 0 0 0 0
0 0 0 0 0 0 0 0 0 0 0 -0 0 0 0 0 -0 0 0 0 -0 0 0 0 0 0 0 0 0 0 0 0 0 0 0 0 0 0 0 0 0 0 -0 0 0 0 0 0 0
0 -0 0 -0 0 0 0 0 0 0 0 -0 0 0 0 0 0 0 0 0 0 0 0 0 0 0 0 0 0 0 0 0 0 0 -0 0 0 0 0 0 0 0 0 0 0 0 0 0 0
-0 -0 -0 0 0 0 0 0 0 0 0 0 0 0 0 -0 -0 0 0 0 -0 0 0 0 0 0 0 0 0 0 0 0 0 0 0 0 0 0 0 0 0 0 0 0 0 0 0 0 0
-0 -0 -0 0 0 0 0 0 0 0 0 0 0 0 0 -0 -0 -0 0 0 0 0 0 0 0 0 0 0 0 -0 0 0 0 0 0 0 0 0 0 0 0 0 0 0 0 0 0 0 0
-0 0 0 0 0 0 0 0 0 0 0 0 0 0 0 -0 -0 0 0 0 0 -0 0 0 0 0 0 0 0 0 0 0 0 0 0 0 0 0 0 0 0 0 0 0 0 0 0 0 0
-0 0 0 0 0 0 0 0 0 0 0 0 0 0 0 0 0 0 0 0 0 -0 0 0 0 0 0 0 0 0 0 0 0 0 0 0 0 0 0 0 0 0 0 0 0 0 0 0 0
0 0 -0 -0 0 0 0 0 0 0 0 0 0 0 0 0 0 0 0 0 0 0 0 0 0 0 0 0 0 0 0 0 0 0 0 0 0 0 0 0 0 0 0 0 0 0 0 0 0
-0 -0 0 0 0 0 0 0 0 0 0 0 0 0 0 0 0 0 0 0 0 0 0 0 0 0 0 0 0 0 0 0 0 0 0 0 0 0 0 0 0 0 0 0 0 0 0 0 0
-0 -0 -0 0 0 0 0 0 0 0 0 0 0 0 0 0 0 0 0 0 0 0 0 0 0 0 0 0 0 0 0 0 0 0 0 0 0 0 0 0 0 0 0 0 0 0 0 0 0
-0 -0 0 0 0 0 0 0 0 0 0 0 0 0 0 0 0 0 0 0 0 0 0 0 0 0 0 0 0 0 0 0 0 0 0 0 0 0 0 0 0 0 0 0 0 0 0 0 0
-0 0 0 0 0 0 0 0 0 0 0 0 0 0 0 0 0 0 0 0 0 0 0 0 0 0 0 0 0 0 0 0 0 0 0 0 0 0 0 0 0 0 0 0 0 0 0 0 0
0 0 0 0 0 0 0 0 0 0 0 0 0 0 0 0 0 0 0 0 0 0 0 0 0 0 0 0 0 0 0 0 0 0 0 0 0 0 0 0 0 0 0 0 0 0 0 0 0
-0 0 0 0 0 0 0 0 0 0 0 0 0 0 0 0 0 0 0 0 0 0 0 0 0 0 0 0 0 0 0 0 0 0 0 0 0 0 0 0 0 0 0 0 0 0 0 0 0
0 0 0 0 0 0 0 0 0 0 0 0 0 0 -0 0 0 0 0 0 0 0 0 0 0 0 0 0 0 0 0 0 0 0 0 0 0 0 0 0 0 0 0 0 0 0 0 0 0
0 0 0 0 0 0 0 0 0 0 0 0 0 0 -0 0 0 0 0 0 0 0 0 0 0 0 0 0 0 0 0 0 0 0 0 0 0 0 0 0 0 0 0 0 0 0 0 0 0
0 0 0 0 0 0 0 0 0 0 0 0 0 0 0 0 0 0 0 0 0 0 0 0 0 0 0 0 0 0 0 0 0 0 0 0 0 0 0 0 0 0 0 0 0 0 0 0 0
0 0 0 0 0 0 0 0 0 0 0 0 0 0 0 0 -0 0 0 0 0 0 0 0 0 0 1 1 0 0 0 0 0 0 0 0 0 0 0 0 0 0 0 0 0 0 0 0 0
0 0 0 0 0 0 0 0 0 0 0 0 0 0 0 0 0 0 0 0 0 0 0 0 0 0 0 1 0 0 0 0 0 0 0 0 0 0 0 0 0 0 0 0 0 0 0 0 0
0 0 0 0 0 0 0 0 0 0 0 0 0 0 0 0 0 0 0 0 0 0 0 0 0 0 0 1 0 0 0 0 0 0 0 0 0 0 0 0 0 0 0 0 0 0 0 0 0
0 0 0 0 0 0 0 0 0 0 0 0 0 0 0 0 -0 -0 -0 -0 0 0 0 0 0 0 0 1 1 0 0 0 0 0 0 0 0 0 0 0 0 0 0 0 0 0 0 0 0
0 0 0 0 0 0 0 0 0 0 0 0 0 0 0 -0 -0 0 -0 -0 0 0 0 0 0 0 1 1 1 0 0 0 0 0 0 0 0 0 0 0 0 0 0 0 0 0 0 0 0
0 0 0 0 0 0 0 0 0 0 0 0 0 0 0 -0 -0 -0 0 0 0 0 0 0 0 0 1 1 1 0 0 0 0 0 0 0 0 0 0 0 0 0 0 0 0 0 0 0 0
0 0 0 0 0 0 0 0 0 0 0 0 0 0 0 -0 -0 -0 0 0 -0 -0 0 0 0 1 1 0 0 0 0 0 0 0 0 0 0 0 0 0 0 0 0 0 0 0 0 0 0
0 0 0 0 0 0 0 0 0 0 0 0 0 0 -0 -0 -0 -0 0 0 -0 -0 -0 0 0 0 0 0 0 0 0 0 0 0 0 0 0 0 0 0 0 0 0 0 0 0 0 0 0
0 0 0 0 0 0 0 0 0 0 0 0 0 -0 -0 -0 0 -0 0 0 -0 -0 -0 0 0 0 0 0 0 0 0 0 0 0 0 0 0 0 0 0 0 0 0 0 0 0 0 0 0
0 0 0 0 0 0 0 0 0 0 0 -0 -0 -0 -0 -0 -0 -0 -0 -0 -0 -0 -0 -0 0 0 0 0 0 0 0 0 0 0 0 0 0 0 0 0 0 0 0 0 0 0 0 0 -0
0 0 0 0 0 0 0 0 0 0 0 0 0 0 -0 -0 -0 -0 0 -0 0 -0 -0 -0 -0 0 0 0 0 0 0 0 0 0 0 0 0 0 0 0 0 0 0 0 0 0 0 -0 -0
0 0 0 0 0 0 0 0 0 0 0 0 0 0 0 0 0 0 0 0 -0 -0 -0 -0 -0 0 0 0 0 0 0 0 0 0 0 0 0 0 0 -0 0 0 0 0 0 0 0 0 0
Wind_Speed_500mb
10 6 11 5 10 11 7 10 5 19 8 16 13 12 16 32 23 9 17 4 15 30 32 38 33 31 31 29 26 25 24 20 18 17 31 23 22 24 27 23 13 2 6 10 5 8 13 16 18
4 1 5 8 10 14 10 18 22 24 20 24 10 12 6 25 41 13 16 9 19 30 30 36 35 30 29 26 25 24 26 24 22 24 33 27 24 21 14 7 6 6 9 10 4 9 11 14 15
2 4 12 6 7 10 5 21 24 26 16 34 20 13 17 26 35 20 27 3 20 28 27 36 32 31 27 24 23 22 23 24 24 29 36 27 21 18 17 15 17 13 10 7 7 11 12 11 10
1 6 10 15 5 21 24 26 29 34 29 40 26 10 24 34 35 33 22 2 20 25 28 34 30 29 25 24 23 22 23 23 25 39 31 29 21 22 22 21 21 17 11 11 11 12 11 10 8
1 8 8 5 18 17 23 32 24 24 23 43 38 22 18 39 43 31 10 5 17 24 26 29 31 28 24 24 25 24 23 23 36 38 29 26 24 23 15 19 17 16 13 16 16 14 12 9 6
9 8 6 4 22 17 27 34 23 31 23 34 26 24 5 39 60 44 21 7 17 31 27 30 33 28 25 25 28 28 26 25 35 34 24 29 23 17 14 10 12 12 15 15 15 13 12 10 6
6 7 15 11 12 17 24 30 28 32 25 34 35 13 14 54 58 49 28 9 16 19 33 30 32 32 29 29 32 33 33 27 29 33 33 26 18 15 13 12 10 14 14 14 14 13 11 9 8
5 3 7 20 14 12 27 26 19 27 15 28 36 18 25 56 55 45 39 15 14 23 29 27 28 29 31 33 38 36 32 29 29 33 39 37 26 20 20 16 16 16 15 14 14 13 12 11 11
6 1 17 17 17 15 27 23 25 20 21 17 26 32 41 50 48 39 37 26 15 25 34 35 33 28 28 30 40 36 31 27 26 24 27 35 28 27 25 21 19 19 19 18 18 16 14 14 14
15 14 10 13 14 15 22 23 29 19 18 30 48 47 50 52 48 41 37 35 31 26 36 39 38 37 33 30 35 42 38 36 32 33 28 28 20 19 18 26 23 23 23 21 19 17 16 15 12
14 12 17 11 12 9 17 22 22 25 24 43 56 64 60 54 48 41 38 36 32 30 37 41 42 41 35 34 35 44 44 43 40 36 35 29 27 32 31 28 27 25 24 21 20 20 16 15 17
20 19 12 7 7 13 19 13 16 24 27 36 43 48 52 50 48 46 42 40 37 34 34 44 43 43 45 45 40 38 38 46 46 37 36 37 31 25 18 20 20 23 21 21 22 18 22 22 21
31 21 20 8 6 20 11 18 8 31 35 38 40 46 48 48 46 45 43 40 36 32 35 42 48 47 52 51 40 47 48 39 33 34 42 36 36 29 21 20 21 21 20 21 22 23 24 25 24
19 30 16 15 14 12 12 10 26 33 38 41 46 47 46 46 48 48 44 43 40 38 32 36 51 53 55 47 51 46 55 49 40 43 47 46 35 33 28 25 24 23 21 20 22 21 23 25 25
35 19 7 19 19 7 9 17 24 32 38 41 45 48 49 47 45 46 46 46 45 43 39 36 44 56 51 51 52 51 50 56 47 49 42 48 46 41 33 28 28 27 24 26 23 26 28 27 25
12 10 10 14 24 6 10 11 25 33 36 43 48 48 53 53 50 46 47 49 48 47 43 39 42 51 56 62 60 59 48 52 53 50 49 49 47 42 40 33 28 27 27 27 25 24 22 21 21
8 10 6 10 12 8 6 3 19 30 39 48 52 55 58 63 57 54 51 51 53 48 47 46 38 52 57 63 62 68 50 48 61 57 54 51 48 43 45 37 31 28 28 28 27 26 24 23 22
9 10 5 4 9 4 4 5 13 29 40 50 54 59 62 66 69 65 56 54 55 50 46 47 47 44 58 59 69 60 56 58 53 58 54 47 45 45 48 44 37 33 32 30 30 29 26 25 23
13 10 6 5 5 9 4 10 9 25 42 56 60 64 68 72 70 68 61 55 60 56 46 42 45 47 56 64 66 68 69 61 60 58 60 59 55 46 49 48 41 37 37 34 31 32 32 31 28
6 3 7 2 2 8 8 19 10 21 37 53 60 67 72 83 82 78 72 68 65 62 54 46 49 48 56 65 71 64 61 69 67 65 62 64 66 57 54 52 49 41 39 36 37 36 37 35 31
11 7 7 8 11 10 20 23 18 11 35 54 59 60 69 80 84 83 81 71 71 64 58 47 44 51 55 60 67 65 58 65 68 66 60 58 56 57 58 56 51 45 41 44 41 39 41 40 37
5 4 5 6 8 5 7 9 16 19 33 48 60 69 75 85 84 88 91 92 76 62 50 50 45 51 50 57 61 62 65 69 66 60 52 49 51 52 53 57 52 49 47 47 44 44 45 44 46
7 6 5 1 4 6 10 8 11 23 34 42 58 65 71 79 89 96 93 84 74 43 44 37 35 43 48 55 50 57 62 54 49 47 44 49 59 57 59 62 53 55 53 56 50 45 50 54 54
6 4 4 4 6 5 5 7 6 15 29 39 58 64 68 77 91 94 95 94 81 35 31 22 30 37 46 49 51 43 48 42 50 48 40 43 40 44 53 65 62 68 67 67 57 54 56 59 60
7 9 4 5 5 4 3 10 9 22 31 39 48 58 64 75 87 96 101 96 81 70 8 13 22 23 35 35 40 38 36 33 38 19 25 16 4 20 24 14 7 23 36 48 48 40 45 51 54
4 8 5 8 6 8 7 7 5 17 34 43 47 54 62 82 83 94 102 94 83 84 69 30 26 27 30 33 28 25 18 19 36 40 42 45 42 44 35 46 46 54 36 27 31 31 35 36 39
6 3 5 0 2 6 3 5 13 19 32 47 52 58 63 76 77 87 87 110 80 79 77 66 56 57 51 44 38 41 43 45 47 44 50 48 46 33 30 40 46 54 45 47 44 54 52 49 48
5 8 6 3 5 8 3 8 7 28 34 36 48 55 60 59 66 79 85 86 104 90 76 72 71 77 74 66 59 54 51 47 56 58 56 56 54 53 47 49 51 52 53 53 52 57 52 46 46
7 5 6 4 4 6 8 3 8 13 21 26 39 44 49 52 55 61 76 80 71 91 90 77 82 87 81 77 77 73 74 69 63 64 65 58 58 45 42 51 55 45 39 36 29 31 28 27 28
5 4 10 6 7 5 5 4 6 9 17 25 34 38 41 45 47 49 59 74 80 78 79 88 87 85 80 75 73 76 72 70 67 62 47 47 50 40 39 36 38 35 33 31 30 27 24 20 17
Wind_Direction_500mb
281 308 329 313 261 234 128 83 2 19 4 6 342 345 1 38 6 22 342 213 161 168 198 181 191 192 191 184 194 202 202 192 184 171 170 156 140 156 163 163 156 138 344 342 346 137 119 119 114
278 260 287 270 265 287 44 50 32 19 18 340 307 311 17 68 27 40 15 330 165 168 197 187 194 196 196 196 206 206 204 202 192 178 176 166 163 173 183 197 228 264 314 310 220 152 127 125 122
154 152 260 250 272 61 154 24 16 352 24 18 352 29 28 350 359 349 351 328 161 172 194 191 195 191 199 205 207 201 197 195 194 185 176 186 179 187 208 240 249 265 279 260 196 150 130 125 125
136 200 231 252 133 52 46 11 0 8 14 13 349 75 90 23 355 336 343 349 171 177 199 201 202 199 204 209 207 197 189 187 187 170 175 185 188 203 224 245 258 260 248 216 184 175 150 142 138
238 240 233 253 81 93 46 15 5 10 9 13 12 358 86 20 6 352 358 127 188 184 209 211 204 204 210 210 197 185 175 177 168 170 185 204 203 214 233 251 252 241 224 187 184 186 176 173 167
205 293 214 196 100 76 42 9 12 4 8 11 4 329 115 359 9 360 345 153 198 193 214 223 205 208 212 210 197 191 186 177 179 187 194 201 198 218 245 249 240 206 178 189 189 192 195 199 210
345 293 45 50 79 69 19 354 13 357 2 5 346 355 320 355 356 352 340 284 213 210 214 211 212 208 214 210 200 197 196 198 204 208 219 215 219 234 243 267 229 219 203 198 198 204 214 226 241
351 324 98 27 22 61 11 358 357 357 352 338 9 13 339 336 343 352 341 319 234 203 214 211 216 221 214 210 197 204 211 216 219 220 223 224 223 236 257 261 240 228 224 218 219 226 238 253 270
333 310 62 40 23 1 357 355 360 347 342 37 7 347 330 329 336 342 347 335 290 227 210 208 213 212 211 211 201 203 216 221 214 212 216 212 222 239 252 246 237 233 231 229 231 239 250 263 272
25 64 69 42 32 356 348 354 354 350 17 356 339 336 334 333 336 336 336 339 307 268 228 220 215 215 205 211 207 205 211 214 218 216 212 211 208 234 229 244 237 234 233 234 239 244 253 266 282
36 86 126 58 21 357 348 360 3 1 18 349 335 331 334 335 333 329 323 318 323 290 252 228 230 220 211 210 202 219 210 215 218 218 216 209 214 229 236 246 238 236 233 239 244 250 258 257 253
107 86 108 85 35 28 350 340 58 33 353 339 333 332 331 332 330 330 321 312 311 303 271 243 230 227 222 211 209 213 214 212 210 210 220 215 225 235 228 221 231 226 235 229 237 243 254 265 270
96 112 86 84 66 21 55 62 41 11 347 342 340 340 337 333 327 322 320 313 305 302 285 256 243 227 232 226 211 223 212 216 218 219 215 217 233 241 230 228 224 225 225 236 237 250 261 268 265
124 125 94 47 54 40 50 67 20 1 351 348 347 347 341 334 331 324 319 312 306 296 289 271 244 241 236 240 217 227 221 216 219 228 218 225 228 242 245 243 236 231 233 241 243 245 258 265 261
131 124 131 38 23 61 328 59 19 360 355 354 352 348 344 340 332 327 321 312 305 297 286 275 260 244 247 243 231 225 237 217 220 224 221 226 231 242 243 246 243 241 239 244 244 254 260 257 254
149 175 180 57 14 39 322 78 14 5 356 355 354 349 345 343 336 326 320 317 307 296 286 271 266 253 241 240 234 233 231 230 210 227 222 225 230 236 249 247 241 237 236 241 243 252 250 253 251
193 131 95 141 27 317 316 52 9 3 0 357 354 352 347 341 337 332 319 317 313 300 288 269 247 255 240 238 237 243 234 238 223 224 225 227 229 237 244 248 244 240 236 235 242 245 245 247 254
150 142 135 115 41 307 122 96 13 10 5 358 352 349 347 343 337 331 322 317 314 306 289 278 245 237 247 239 238 238 236 228 229 226 226 224 234 238 240 243 244 242 241 242 241 240 243 248 249
83 102 123 114 63 309 243 270 354 4 4 359 352 348 343 341 337 332 330 316 317 309 294 277 256 230 236 236 235 230 229 228 227 227 230 232 238 237 241 246 245 247 245 246 240 245 250 245 252
98 154 39 170 309 306 287 273 218 359 7 356 351 349 343 339 337 336 330 321 316 306 298 277 253 231 232 236 236 233 228 234 234 238 236 235 237 238 244 249 249 246 241 238 239 240 245 248 242
49 21 14 328 307 258 295 254 210 336 360 354 354 349 347 343 334 330 326 323 317 304 294 276 258 224 229 239 237 240 234 235 238 238 243 240 237 239 243 249 250 249 254 256 254 249 242 244 247
226 47 346 302 298 328 344 311 171 359 357 356 352 353 351 346 341 339 337 334 323 303 285 274 239 225 222 233 232 231 231 228 234 239 243 241 239 237 240 243 244 245 249 256 261 255 255 252 248
47 326 285 260 297 312 171 260 85 10 355 347 350 354 356 349 349 345 339 336 337 311 287 265 241 221 215 226 226 232 223 240 248 239 242 240 238 238 237 238 240 240 243 247 253 254 256 257 262
340 243 231 252 246 241 105 345 64 15 346 344 347 354 354 350 354 354 353 349 357 341 291 248 215 211 212 217 222 230 230 238 235 235 226 220 221 231 240 237 237 248 249 248 249 257 259 262 266
244 252 248 224 221 316 96 277 57 18 0 347 347 354 352 356 358 4 2 4 26 25 355 200 188 195 199 203 201 208 218 222 224 212 179 146 209 349 3 322 276 261 261 262 259 247 247 246 243
8 313 330 300 300 332 110 265 85 21 3 353 356 359 356 359 359 4 12 17 29 35 54 100 133 145 165 173 172 181 189 151 131 120 119 112 117 103 100 84 84 81 96 124 146 133 116 108 112
100 249 2 109 53 272 229 190 150 353 0 356 357 3 359 356 359 8 21 28 30 48 59 73 93 102 110 111 113 115 112 107 101 107 113 108 110 105 81 74 84 80 84 77 72 82 85 87 91
302 105 225 131 288 280 170 272 293 358 346 348 354 1 356 359 360 15 32 32 33 38 63 79 90 94 97 99 101 106 106 102 100 100 97 94 90 83 83 93 87 85 82 79 74 77 81 83 85
166 190 226 318 285 291 305 89 60 355 343 344 349 360 359 1 5 10 34 43 36 39 36 56 80 92 92 96 101 102 106 109 105 102 91 91 88 85 83 86 84 78 78 78 80 83 90 85 84
286 239 238 256 174 250 300 295 115 14 356 358 353 360 4 4 11 18 28 43 45 42 42 42 61 72 84 91 91 90 91 96 97 95 94 89 93 90 91 92 95 92 87 89 87 85 83 84 87
Wind_Speed_850mb
10 6 11 5 10 11 7 10 5 19 8 16 13 12 16 32 23 9 17 4 15 30 32 38 33 31 31 29 26 25 24 20 18 17 31 23 22 24 27 23 13 2 6 10 5 8 13 16 18
4 1 5 8 10 14 10 18 22 24 20 24 10 12 6 25 41 13 16 9 19 30 30 36 35 30 29 26 25 24 26 24 22 24 33 27 24 21 14 7 6 6 9 10 4 9 11 14 15
2 4 12 6 7 10 5 21 24 26 16 34 20 13 17 26 35 20 27 3 20 28 27 36 32 31 27 24 23 22 23 24 24 29 36 27 21 18 17 15 17 13 10 7 7 11 12 11 10
1 6 10 15 5 21 24 26 29 34 29 40 26 10 24 34 35 33 22 2 20 25 28 34 30 29 25 24 23 22 23 23 25 39 31 29 21 22 22 21 21 17 11 11 11 12 11 10 8
1 8 8 5 18 17 23 32 24 24 23 43 38 22 18 39 43 31 10 5 17 24 26 29 31 28 24 24 25 24 23 23 36 38 29 26 24 23 15 19 17 16 13 16 16 14 12 9 6
9 8 6 4 22 17 27 34 23 31 23 34 26 24 5 39 60 44 21 7 17 31 27 30 33 28 25 25 28 28 26 25 35 34 24 29 23 17 14 10 12 12 15 15 15 13 12 10 6
6 7 15 11 12 17 24 30 28 32 25 34 35 13 14 54 58 49 28 9 16 19 33 30 32 32 29 29 32 33 33 27 29 33 33 26 18 15 13 12 10 14 14 14 14 13 11 9 8
5 3 7 20 14 12 27 26 19 27 15 28 36 18 25 56 55 45 39 15 14 23 29 27 28 29 31 33 38 36 32 29 29 33 39 37 26 20 20 16 16 16 15 14 14 13 12 11 11
6 1 17 17 17 15 27 23 25 20 21 17 26 32 41 50 48 39 37 26 15 25 34 35 33 28 28 30 40 36 31 27 26 24 27 35 28 27 25 21 19 19 19 18 18 16 14 14 14
15 14 10 13 14 15 22 23 29 19 18 30 48 47 50 52 48 41 37 35 31 26 36 39 38 37 33 30 35 42 38 36 32 33 28 28 20 19 18 26 23 23 23 21 19 17 16 15 12
14 12 17 11 12 9 17 22 22 25 24 43 56 64 60 54 48 41 38 36 32 30 37 41 42 41 35 34 35 44 44 43 40 36 35 29 27 32 31 28 27 25 24 21 20 20 16 15 17
20 19 12 7 7 13 19 13 16 24 27 36 43 48 52 50 48 46 42 40 37 34 34 44 43 43 45 45 40 38 38 46 46 37 36 37 31 25 18 20 20 23 21 21 22 18 22 22 21
31 21 20 8 6 20 11 18 8 31 35 38 40 46 48 48 46 45 43 40 36 32 35 42 48 47 52 51 40 47 48 39 33 34 42 36 36 29 21 20 21 21 20 21 22 23 24 25 24
19 30 16 15 14 12 12 10 26 33 38 41 46 47 46 46 48 48 44 43 40 38 32 36 51 53 55 47 51 46 55 49 40 43 47 46 35 33 28 25 24 23 21 20 22 21 23 25 25
35 19 7 19 19 7 9 17 24 32 38 41 45 48 49 47 45 46 46 46 45 43 39 36 44 56 51 51 52 51 50 56 47 49 42 48 46 41 33 28 28 27 24 26 23 26 28 27 25
12 10 10 14 24 6 10 11 25 33 36 43 48 48 53 53 50 46 47 49 48 47 43 39 42 51 56 62 60 59 48 52 53 50 49 49 47 42 40 33 28 27 27 27 25 24 22 21 21
8 10 6 10 12 8 6 3 19 30 39 48 52 55 58 63 57 54 51 51 53 48 47 46 38 52 57 63 62 68 50 48 61 57 54 51 48 43 45 37 31 28 28 28 27 26 24 23 22
9 10 5 4 9 4 4 5 13 29 40 50 54 59 62 66 69 65 56 54 55 50 46 47 47 44 58 59 69 60 56 58 53 58 54 47 45 45 48 44 37 33 32 30 30 29 26 25 23
13 10 6 5 5 9 4 10 9 25 42 56 60 64 68 72 70 68 61 55 60 56 46 42 45 47 56 64 66 68 69 61 60 58 60 59 55 46 49 48 41 37 37 34 31 32 32 31 28
6 3 7 2 2 8 8 19 10 21 37 53 60 67 72 83 82 78 72 68 65 62 54 46 49 48 56 65 71 64 61 69 67 65 62 64 66 57 54 52 49 41 39 36 37 36 37 35 31
11 7 7 8 11 10 20 23 18 11 35 54 59 60 69 80 84 83 81 71 71 64 58 47 44 51 55 60 67 65 58 65 68 66 60 58 56 57 58 56 51 45 41 44 41 39 41 40 37
5 4 5 6 8 5 7 9 16 19 33 48 60 69 75 85 84 88 91 92 76 62 50 50 45 51 50 57 61 62 65 69 66 60 52 49 51 52 53 57 52 49 47 47 44 44 45 44 46
7 6 5 1 4 6 10 8 11 23 34 42 58 65 71 79 89 96 93 84 74 43 44 37 35 43 48 55 50 57 62 54 49 47 44 49 59 57 59 62 53 55 53 56 50 45 50 54 54
6 4 4 4 6 5 5 7 6 15 29 39 58 64 68 77 91 94 95 94 81 35 31 22 30 37 46 49 51 43 48 42 50 48 40 43 40 44 53 65 62 68 67 67 57 54 56 59 60
7 9 4 5 5 4 3 10 9 22 31 39 48 58 64 75 87 96 101 96 81 70 8 13 22 23 35 35 40 38 36 33 38 19 25 16 4 20 24 14 7 23 36 48 48 40 45 51 54
4 8 5 8 6 8 7 7 5 17 34 43 47 54 62 82 83 94 102 94 83 84 69 30 26 27 30 33 28 25 18 19 36 40 42 45 42 44 35 46 46 54 36 27 31 31 35 36 39
6 3 5 0 2 6 3 5 13 19 32 47 52 58 63 76 77 87 87 110 80 79 77 66 56 57 51 44 38 41 43 45 47 44 50 48 46 33 30 40 46 54 45 47 44 54 52 49 48
5 8 6 3 5 8 3 8 7 28 34 36 48 55 60 59 66 79 85 86 104 90 76 72 71 77 74 66 59 54 51 47 56 58 56 56 54 53 47 49 51 52 53 53 52 57 52 46 46
7 5 6 4 4 6 8 3 8 13 21 26 39 44 49 52 55 61 76 80 71 91 90 77 82 87 81 77 77 73 74 69 63 64 65 58 58 45 42 51 55 45 39 36 29 31 28 27 28
5 4 10 6 7 5 5 4 6 9 17 25 34 38 41 45 47 49 59 74 80 78 79 88 87 85 80 75 73 76 72 70 67 62 47 47 50 40 39 36 38 35 33 31 30 27 24 20 17
Wind_Direction_850mb
281 308 329 313 261 234 128 83 2 19 4 6 342 345 1 38 6 22 342 213 161 168 198 181 191 192 191 184 194 202 202 192 184 171 170 156 140 156 163 163 156 138 344 342 346 137 119 119 114
278 260 287 270 265 287 44 50 32 19 18 340 307 311 17 68 27 40 15 330 165 168 197 187 194 196 196 196 206 206 204 202 192 178 176 166 163 173 183 197 228 264 314 310 220 152 127 125 122
154 152 260 250 272 61 154 24 16 352 24 18 352 29 28 350 359 349 351 328 161 172 194 191 195 191 199 205 207 201 197 195 194 185 176 186 179 187 208 240 249 265 279 260 196 150 130 125 125
136 200 231 252 133 52 46 11 0 8 14 13 349 75 90 23 355 336 343 349 171 177 199 201 202 199 204 209 207 197 189 187 187 170 175 185 188 203 224 245 258 260 248 216 184 175 150 142 138
238 240 233 253 81 93 46 15 5 10 9 13 12 358 86 20 6 352 358 127 188 184 209 211 204 204 210 210 197 185 175 177 168 170 185 204 203 214 233 251 252 241 224 187 184 186 176 173 167
205 293 214 196 100 76 42 9 12 4 8 11 4 329 115 359 9 360 345 153 198 193 214 223 205 208 212 210 197 191 186 177 179 187 194 201 198 218 245 249 240 206 178 189 189 192 195 199 210
345 293 45 50 79 69 19 354 13 357 2 5 346 355 320 355 356 352 340 284 213 210 214 211 212 208 214 210 200 197 196 198 204 208 219 215 219 234 243 267 229 219 203 198 198 204 214 226 241
351 324 98 27 22 61 11 358 357 357 352 338 9 13 339 336 343 352 341 319 234 203 214 211 216 221 214 210 197 204 211 216 219 220 223 224 223 236 257 261 240 228 224 218 219 226 238 253 270
333 310 62 40 23 1 357 355 360 347 342 37 7 347 330 329 336 342 347 335 290 227 210 208 213 212 211 211 201 203 216 221 214 212 216 212 222 239 252 246 237 233 231 229 231 239 250 263 272
25 64 69 42 32 356 348 354 354 350 17 356 339 336 334 333 336 336 336 339 307 268 228 220 215 215 205 211 207 205 211 214 218 216 212 211 208 234 229 244 237 234 233 234 239 244 253 266 282
36 86 126 58 21 357 348 360 3 1 18 349 335 331 334 335 333 329 323 318 323 290 252 228 230 220 211 210 202 219 210 215 218 218 216 209 214 229 236 246 238 236 233 239 244 250 258 257 253
107 86 108 85 35 28 350 340 58 33 353 339 333 332 331 332 330 330 321 312 311 303 271 243 230 227 222 211 209 213 214 212 210 210 220 215 225 235 228 221 231 226 235 229 237 243 254 265 270
96 112 86 84 66 21 55 62 41 11 347 342 340 340 337 333 327 322 320 313 305 302 285 256 243 227 232 226 211 223 212 216 218 219 215 217 233 241 230 228 224 225 225 236 237 250 261 268 265
124 125 94 47 54 40 50 67 20 1 351 348 347 347 341 334 331 324 319 312 306 296 289 271 244 241 236 240 217 227 221 216 219 228 218 225 228 242 245 243 236 231 233 241 243 245 258 265 261
131 124 131 38 23 61 328 59 19 360 355 354 352 348 344 340 332 327 321 312 305 297 286 275 260 244 247 243 231 225 237 217 220 224 221 226 231 242 243 246 243 241 239 244 244 254 260 257 254
149 175 180 57 14 39 322 78 14 5 356 355 354 349 345 343 336 326 320 317 307 296 286 271 266 253 241 240 234 233 231 230 210 227 222 225 230 236 249 247 241 237 236 241 243 252 250 253 251
193 131 95 141 27 317 316 52 9 3 0 357 354 352 347 341 337 332 319 317 313 300 288 269 247 255 240 238 237 243 234 238 223 224 225 227 229 237 244 248 244 240 236 235 242 245 245 247 254
150 142 135 115 41 307 122 96 13 10 5 358 352 349 347 343 337 331 322 317 314 306 289 278 245 237 247 239 238 238 236 228 229 226 226 224 234 238 240 243 244 242 241 242 241 240 243 248 249
83 102 123 114 63 309 243 270 354 4 4 359 352 348 343 341 337 332 330 316 317 309 294 277 256 230 236 236 235 230 229 228 227 227 230 232 238 237 241 246 245 247 245 246 240 245 250 245 252
98 154 39 170 309 306 287 273 218 359 7 356 351 349 343 339 337 336 330 321 316 306 298 277 253 231 232 236 236 233 228 234 234 238 236 235 237 238 244 249 249 246 241 238 239 240 245 248 242
49 21 14 328 307 258 295 254 210 336 360 354 354 349 347 343 334 330 326 323 317 304 294 276 258 224 229 239 237 240 234 235 238 238 243 240 237 239 243 249 250 249 254 256 254 249 242 244 247
226 47 346 302 298 328 344 311 171 359 357 356 352 353 351 346 341 339 337 334 323 303 285 274 239 225 222 233 232 231 231 228 234 239 243 241 239 237 240 243 244 245 249 256 261 255 255 252 248
47 326 285 260 297 312 171 260 85 10 355 347 350 354 356 349 349 345 339 336 337 311 287 265 241 221 215 226 226 232 223 240 248 239 242 240 238 238 237 238 240 240 243 247 253 254 256 257 262
340 243 231 252 246 241 105 345 64 15 346 344 347 354 354 350 354 354 353 349 357 341 291 248 215 211 212 217 222 230 230 238 235 235 226 220 221 231 240 237 237 248 249 248 249 257 259 262 266
244 252 248 224 221 316 96 277 57 18 0 347 347 354 352 356 358 4 2 4 26 25 355 200 188 195 199 203 201 208 218 222 224 212 179 146 209 349 3 322 276 261 261 262 259 247 247 246 243
8 313 330 300 300 332 110 265 85 21 3 353 356 359 356 359 359 4 12 17 29 35 54 100 133 145 165 173 172 181 189 151 131 120 119 112 117 103 100 84 84 81 96 124 146 133 116 108 112
100 249 2 109 53 272 229 190 150 353 0 356 357 3 359 356 359 8 21 28 30 48 59 73 93 102 110 111 113 115 112 107 101 107 113 108 110 105 81 74 84 80 84 77 72 82 85 87 91
302 105 225 131 288 280 170 272 293 358 346 348 354 1 356 359 360 15 32 32 33 38 63 79 90 94 97 99 101 106 106 102 100 100 97 94 90 83 83 93 87 85 82 79 74 77 81 83 85
166 190 226 318 285 291 305 89 60 355 343 344 349 360 359 1 5 10 34 43 36 39 36 56 80 92 92 96 101 102 106 109 105 102 91 91 88 85 83 86 84 78 78 78 80 83 90 85 84
286 239 238 256 174 250 300 295 115 14 356 358 353 360 4 4 11 18 28 43 45 42 42 42 61 72 84 91 91 90 91 96 97 95 94 89 93 90 91 92 95 92 87 89 87 85 83 84 87